AEE21D LGAV-LGSK

Flight info

Callsign AEE21D
Flight time 0h 28m
Altitude 12000
Route ROPOX M749 SIGFO
Aircraft A321/M-SDE3FGHIRWY/LB1

Departure

Time 2026-05-08 11:36
Airport Athens Eleftherios Venizelos International Airport (LGAV)

Arrival

Time 2026-05-08 12:05
Airport Skiathos Island National Airport (LGSK)
Time Latitude Longitude Altitude Speed Heading
2026-05-08 11:25 37.94306 23.95407 302 ft 0 kts 37°
2026-05-08 11:28 37.94306 23.95406 302 ft 0 kts 37°
2026-05-08 11:30 37.94287 23.95388 301 ft 4 kts 36°
2026-05-08 11:30 37.94265 23.95369 302 ft 3 kts 40°
2026-05-08 11:30 37.94256 23.95358 301 ft 2 kts 81°
2026-05-08 11:30 37.94257 23.95345 301 ft 2 kts 124°
2026-05-08 11:31 37.94262 23.95336 301 ft 0 kts 123°
2026-05-08 11:33 37.94259 23.95341 300 ft 2 kts 123°
2026-05-08 11:33 37.94243 23.95369 302 ft 8 kts 125°
2026-05-08 11:33 37.94184 23.95469 300 ft 21 kts 128°
2026-05-08 11:33 37.94089 23.95634 300 ft 24 kts 115°
2026-05-08 11:34 37.94138 23.95746 300 ft 17 kts 37°
2026-05-08 11:34 37.94253 23.95851 299 ft 24 kts 38°
2026-05-08 11:34 37.94397 23.95989 300 ft 27 kts 37°
2026-05-08 11:34 37.94545 23.96131 299 ft 27 kts 37°
2026-05-08 11:35 37.94655 23.96277 300 ft 10 kts 95°
2026-05-08 11:35 37.94590 23.96322 300 ft 16 kts 178°
2026-05-08 11:35 37.94481 23.96326 293 ft 14 kts 163°
2026-05-08 11:35 37.94443 23.96309 292 ft 0 kts 216°
2026-05-08 11:36 37.94423 23.96291 290 ft 23 kts 216°
2026-05-08 11:36 37.94074 23.95960 283 ft 99 kts 217°
2026-05-08 11:36 37.93361 23.95283 304 ft 153 kts 218°
2026-05-08 11:36 37.92481 23.94508 947 ft 154 kts 210°
2026-05-08 11:37 37.91535 23.93845 1649 ft 156 kts 206°
2026-05-08 11:37 37.90567 23.93210 2336 ft 162 kts 206°
2026-05-08 11:37 37.89495 23.92519 2635 ft 184 kts 206°
2026-05-08 11:37 37.88289 23.91732 2920 ft 206 kts 207°
2026-05-08 11:38 37.86954 23.90849 3166 ft 226 kts 207°
2026-05-08 11:38 37.85529 23.89896 3782 ft 234 kts 208°
2026-05-08 11:38 37.84085 23.88918 4583 ft 238 kts 209°
2026-05-08 11:38 37.82628 23.87926 5374 ft 238 kts 210°
2026-05-08 11:39 37.81330 23.86667 6166 ft 236 kts 231°
2026-05-08 11:39 37.80605 23.84823 6968 ft 238 kts 257°
2026-05-08 11:39 37.80633 23.82732 7716 ft 243 kts 282°
2026-05-08 11:39 37.81462 23.80853 8459 ft 253 kts 309°
2026-05-08 11:40 37.82984 23.79668 9207 ft 268 kts 338°
2026-05-08 11:40 37.84870 23.79366 9930 ft 276 kts 348°
2026-05-08 11:40 37.86143 23.79256 10381 ft 277 kts 349°
2026-05-08 11:40 37.88116 23.79079 10698 ft 295 kts 349°
2026-05-08 11:41 37.90245 23.78878 10840 ft 318 kts 349°
2026-05-08 11:41 37.92532 23.78661 10977 ft 339 kts 349°
2026-05-08 11:41 37.94958 23.78433 11096 ft 360 kts 350°
2026-05-08 11:41 37.97524 23.78192 11217 ft 378 kts 350°
2026-05-08 11:42 38.00208 23.77943 11341 ft 395 kts 351°
2026-05-08 11:42 38.02981 23.77689 11650 ft 403 kts 351°
2026-05-08 11:42 38.05791 23.77436 12005 ft 407 kts 351°
2026-05-08 11:42 38.08616 23.77181 12094 ft 406 kts 351°
2026-05-08 11:43 38.11438 23.76922 12111 ft 407 kts 351°
2026-05-08 11:43 38.14262 23.76660 12112 ft 406 kts 351°
2026-05-08 11:43 38.17080 23.76392 12107 ft 406 kts 350°
2026-05-08 11:43 38.19895 23.76067 12114 ft 406 kts 349°
2026-05-08 11:44 38.22704 23.75706 12108 ft 406 kts 349°
2026-05-08 11:44 38.25513 23.75322 12109 ft 406 kts 348°
2026-05-08 11:44 38.28319 23.74913 12113 ft 406 kts 348°
2026-05-08 11:44 38.31117 23.74448 12108 ft 404 kts 344°
2026-05-08 11:45 38.33848 23.73661 12109 ft 403 kts 342°
2026-05-08 11:45 38.36571 23.72829 11942 ft 402 kts 341°
2026-05-08 11:45 38.39289 23.71979 11695 ft 401 kts 341°
2026-05-08 11:45 38.41988 23.71128 11453 ft 400 kts 341°
2026-05-08 11:46 38.44667 23.70288 11206 ft 388 kts 341°
2026-05-08 11:46 38.47233 23.69491 10969 ft 371 kts 341°
2026-05-08 11:46 38.49667 23.68738 10721 ft 345 kts 340°
2026-05-08 11:46 38.51930 23.68038 10485 ft 328 kts 340°
2026-05-08 11:47 38.54119 23.67352 10247 ft 321 kts 340°
2026-05-08 11:47 38.56277 23.66669 10043 ft 319 kts 340°
2026-05-08 11:47 38.58428 23.65988 9903 ft 319 kts 340°
2026-05-08 11:47 38.60584 23.65307 9777 ft 319 kts 340°
2026-05-08 11:48 38.62739 23.64627 9545 ft 320 kts 340°
2026-05-08 11:48 38.64885 23.63952 9165 ft 315 kts 340°
2026-05-08 11:48 38.67000 23.63290 8773 ft 311 kts 340°
2026-05-08 11:48 38.69100 23.62632 8405 ft 309 kts 341°
2026-05-08 11:49 38.71180 23.61980 8034 ft 307 kts 341°
2026-05-08 11:49 38.73246 23.61330 7674 ft 305 kts 341°
2026-05-08 11:49 38.75283 23.60689 7297 ft 297 kts 342°
2026-05-08 11:49 38.77244 23.60080 6938 ft 287 kts 341°
2026-05-08 11:50 38.79186 23.59472 6585 ft 287 kts 341°
2026-05-08 11:50 38.81099 23.58869 6207 ft 286 kts 342°
2026-05-08 11:50 38.83023 23.58261 5831 ft 285 kts 342°
2026-05-08 11:50 38.84969 23.57647 5454 ft 283 kts 343°
2026-05-08 11:51 38.86849 23.57054 5088 ft 282 kts 344°
2026-05-08 11:51 38.88754 23.56454 4712 ft 281 kts 344°
2026-05-08 11:51 38.90648 23.55857 4394 ft 278 kts 344°
2026-05-08 11:51 38.92519 23.55267 4091 ft 275 kts 345°
2026-05-08 11:52 38.94364 23.54685 3794 ft 271 kts 345°
2026-05-08 11:52 38.96187 23.54112 3489 ft 268 kts 345°
2026-05-08 11:52 38.97984 23.53545 3206 ft 264 kts 345°
2026-05-08 11:52 38.99732 23.52989 2897 ft 251 kts 346°
2026-05-08 11:53 39.01356 23.52472 2616 ft 232 kts 346°
2026-05-08 11:53 39.02898 23.51980 2318 ft 226 kts 346°
2026-05-08 11:53 39.04325 23.51209 2030 ft 221 kts 330°
2026-05-08 11:53 39.05627 23.50292 1894 ft 202 kts 332°
2026-05-08 11:54 39.06785 23.49499 1818 ft 175 kts 333°
2026-05-08 11:54 39.07820 23.48800 1728 ft 163 kts 333°
2026-05-08 11:54 39.08840 23.48234 1666 ft 158 kts 347°
2026-05-08 11:54 39.09922 23.48094 1520 ft 156 kts
2026-05-08 11:55 39.10989 23.48228 1332 ft 153 kts
2026-05-08 11:55 39.12030 23.48365 1103 ft 151 kts
2026-05-08 11:55 39.13065 23.48470 964 ft 149 kts
2026-05-08 11:55 39.14060 23.48759 716 ft 145 kts 15°
2026-05-08 11:56 39.15006 23.49170 494 ft 144 kts 20°
2026-05-08 11:56 39.15940 23.49585 280 ft 141 kts 18°
2026-05-08 11:56 39.16869 23.49995 71 ft 140 kts 19°
2026-05-08 11:56 39.17762 23.50398 162 ft 140 kts 21°
2026-05-08 11:57 39.18697 23.50839 980 ft 145 kts 21°
2026-05-08 11:57 39.19646 23.51260 1791 ft 143 kts 21°
2026-05-08 11:57 39.20616 23.51744 2006 ft 164 kts 36°
2026-05-08 11:57 39.21291 23.53020 2053 ft 189 kts 77°
2026-05-08 11:58 39.21240 23.54798 2028 ft 214 kts 111°
2026-05-08 11:58 39.20396 23.56403 2028 ft 220 kts 134°
2026-05-08 11:58 39.19298 23.57785 2036 ft 221 kts 140°
2026-05-08 11:59 39.16461 23.59177 2034 ft 221 kts 170°
2026-05-08 11:59 39.14935 23.59172 2032 ft 217 kts 191°
2026-05-08 11:59 39.13498 23.58697 2036 ft 211 kts 195°
2026-05-08 11:59 39.12120 23.58177 2037 ft 208 kts 195°
2026-05-08 12:00 39.10718 23.57633 2039 ft 208 kts 195°
2026-05-08 12:00 39.09348 23.57042 2040 ft 208 kts 201°
2026-05-08 12:00 39.08043 23.56242 2040 ft 208 kts 205°
2026-05-08 12:00 39.06777 23.55337 2039 ft 209 kts 217°
2026-05-08 12:01 39.05791 23.53963 2045 ft 211 kts 232°
2026-05-08 12:01 39.05116 23.52300 2030 ft 213 kts 254°
2026-05-08 12:01 39.05115 23.50428 2036 ft 216 kts 285°
2026-05-08 12:01 39.05878 23.48792 2039 ft 214 kts 317°
2026-05-08 12:02 39.07095 23.47861 2007 ft 189 kts 336°
2026-05-08 12:02 39.08208 23.47196 1843 ft 169 kts 336°
2026-05-08 12:02 39.09311 23.46814 1698 ft 159 kts
2026-05-08 12:02 39.10370 23.47007 1531 ft 154 kts 14°
2026-05-08 12:03 39.11395 23.47428 1381 ft 152 kts 25°
2026-05-08 12:03 39.12370 23.47943 1186 ft 151 kts 25°
2026-05-08 12:03 39.13341 23.48407 942 ft 148 kts 21°
2026-05-08 12:03 39.14289 23.48828 734 ft 145 kts 21°
2026-05-08 12:04 39.15238 23.49275 495 ft 141 kts 21°
2026-05-08 12:04 39.16160 23.49682 223 ft 141 kts 19°
2026-05-08 12:04 39.17084 23.50091 48 ft 140 kts 19°
2026-05-08 12:04 39.17870 23.50440 40 ft 83 kts 19°
2026-05-08 12:05 39.18270 23.50617 57 ft 47 kts 19°
2026-05-08 12:05 39.18473 23.50725 56 ft 18 kts 49°
2026-05-08 12:05 39.18493 23.50726 57 ft 2 kts 258°
2026-05-08 12:05 39.18444 23.50694 61 ft 15 kts 202°
2026-05-08 12:06 39.18287 23.50625 55 ft 32 kts 198°
2026-05-08 12:06 39.18054 23.50518 48 ft 33 kts 199°
2026-05-08 12:06 39.17930 23.50405 42 ft 16 kts 262°
2026-05-08 12:06 39.17943 23.50284 39 ft 9 kts 289°
2026-05-08 12:07 39.17950 23.50257 39 ft 0 kts 289°